Regional Weather Roundup
Issued by NWS

Home | Current Version | Previous Version | Text Only | Print | Product List | Glossary On
Versions: 1 2 3 4 5 6 7 8 9 10 11 12 13 14 15 16 17 18 19 20 21 22 23 24 25 26 27 28 29 30 31 32 33 34 35 36 37 38 39 40 41 42 43 44 45 46 47 48 49 50
000
ASUS43 KFSD 240510
RWRSD

WEATHER ROUNDUP FOR SOUTH DAKOTA
NATIONAL WEATHER SERVICE SIOUX FALLS SD
1200 AM CDT WED SEP 24 2014

NOTE: "FAIR" INDICATES FEW OR NO CLOUDS BELOW 12,000 FEET WITH NO
SIGNIFICANT WEATHER AND/OR OBSTRUCTIONS TO VISIBILITY.


SDZ001>005-009-010-012>017-240600-
NORTHWEST AND NORTH CENTRAL SOUTH DAKOTA

CITY           SKY/WX    TMP DP  RH WIND       PRES   REMARKS
BUFFALO          N/A     61  50  67 W6        29.92R
FAITH            N/A     57  56  96 S14       29.94S
MOBRIDGE       PTCLDY    57  55  93 E7        29.93S
$$

SDZ012>016-024>037-041>051-057-063-072>074-240600-
SOUTHWEST AND SOUTH CENTRAL SOUTH DAKOTA

CITY           SKY/WX    TMP DP  RH WIND       PRES   REMARKS
RAPID CTY ARPT CLEAR     62  50  64 NW9       30.00R
PIERRE         PTCLDY    59  57  93 SE7       29.92S
CUSTER         CLEAR     59  44  57 N5        30.16R
ELLSWORTH AFB  CLEAR     61  50  65 W7        30.00R
PHILIP         CLEAR     59  56  89 E3        29.94S
PINE RIDGE     CLEAR     56  52  86 CALM      30.03R
WINNER         FAIR      63  59  87 S9        29.94S
$$

SDZ004>011-016>023-039-040-240600-
NORTHEAST SOUTH DAKOTA

CITY           SKY/WX    TMP DP  RH WIND       PRES   REMARKS
ABERDEEN       CLOUDY    59  58  96 SE6       29.97F
WATERTOWN      CLOUDY    58  56  93 S12       30.02S
SISSETON         N/A     57  57 100 S10       30.01S
$$

SDZ017-020-022-023-036>040-048>070-240600-
SOUTHEAST SOUTH DAKOTA

CITY           SKY/WX    TMP DP  RH WIND       PRES   REMARKS
SIOUX FALLS    MOCLDY    60  53  77 S13G22    30.05S
HURON          CLOUDY    61  57  87 S12G21    29.97F
CHAMBERLAIN    CLEAR     57  56  97 SE5       29.95S
MITCHELL       PTCLDY    60  58  92 S13       30.00R
YANKTON        CLOUDY    59  54  82 SE8       30.04S
$$

ABBREVIATIONS USED IN REMARKS
   TC - TEMPERATURE IN CELSIUS
  WCI - WIND CHILL INDEX
   HX - HEAT INDEX
  VSB - VISIBILITY




USA.gov is the U.S. government's official web portal to all federal, state and local government web resources and services.